Lowell, ID

12:36 PM MDT on June 28, 2017 (GMT -0600)
Lowell

Weather History for KP69 - October, 2013

Change the Weather History Date:

Friday, October 18, 2013

  Actual Average Record
Temperature  
Mean Temperature 48 °F -  
Max Temperature 60 °F 57 °F 71 °F (2005)
Min Temperature 37 °F 37 °F 30 °F (1999)
Degree Days  
Heating Degree Days 16    
Moisture  
Dew Point 38 °F    
Average Humidity 81    
Maximum Humidity 93    
Minimum Humidity 49    
Precipitation  
Precipitation 0.00 in - - ()
Sea Level Pressure  
Sea Level Pressure 30.34 in    
Wind  
Wind Speed 1 mph (West)    
Max Wind Speed 4 mph    
Max Gust Speed -    
Averages and records for this station are not official NWS values.
T = Trace of Precipitation, MM = Missing Value Source: NWS Daily Summary

Daily Weather History Graph

Daily Weather History Graph

Search for Another Location

Airport or City:

Trip Planner

Search our weather history database for the weather conditions in past years. The results will help you decide how hot, cold, wet, or windy it might be!

Date:

Astronomy

Oct. 18, 2013 Rise Set
Actual Time 8:02 AM MDT 6:49 PM MDT
Civil Twilight 7:32 AM MDT 7:20 PM MDT
Nautical Twilight 6:58 AM MDT 7:54 PM MDT
Astronomical Twilight 6:23 AM MDT 8:29 PM MDT
Moon 6:41 PM MDT (10/18) 7:43 AM MDT (10/18)
Length of Visible Light 11h 47m
Length of Day
10h 47m
Full, 100% of the Moon is Illuminated
Oct 18
Full
Oct 18
Full
Oct 26
Last Quarter
Nov 3
New
Nov 9
First Quarter

Hourly Weather History & Observations

Time (MDT) Temp. Windchill Dew Point Humidity Pressure Visibility Wind Dir Wind Speed Gust Speed Precip Events Conditions
12:52 AM 39.9 °F - 37.9 °F 93% 30.36 in - Calm Calm - N/A   Unknown
1:52 AM 39.0 °F - 37.0 °F 93% 30.37 in - Calm Calm - N/A   Unknown
2:52 AM 39.9 °F - 37.0 °F 89% 30.36 in - Calm Calm - N/A   Unknown
3:52 AM 39.0 °F - 36.0 °F 89% 30.37 in - Calm Calm - N/A   Unknown
4:52 AM 39.0 °F - 36.0 °F 89% 30.38 in - Calm Calm - N/A   Unknown
5:52 AM 37.9 °F - 36.0 °F 93% 30.40 in - Calm Calm - N/A   Unknown
6:52 AM 39.0 °F - 36.0 °F 89% 30.42 in - Calm Calm - N/A   Unknown
7:52 AM 37.9 °F 35.5 °F 35.1 °F 89% 30.42 in - South 3.5 mph - N/A   Unknown
8:52 AM 37.9 °F 35.5 °F 35.1 °F 89% 30.44 in - South 3.5 mph - N/A   Unknown
9:52 AM 39.0 °F - 34.0 °F 82% 30.45 in - Calm Calm - N/A   Unknown
10:52 AM 42.1 °F - 35.1 °F 76% 30.43 in - Calm Calm - N/A   Unknown
11:52 AM 46.0 °F 44.8 °F 35.1 °F 66% 30.39 in - North 3.5 mph - N/A   Unknown
12:52 PM 48.0 °F - 36.0 °F 63% 30.35 in - North 3.5 mph - N/A   Unknown
1:52 PM 55.9 °F - 37.0 °F 49% 30.29 in - North 3.5 mph - N/A   Unknown
2:52 PM 55.0 °F - 39.0 °F 55% 30.26 in - South 3.5 mph - N/A   Unknown
3:52 PM 60.1 °F - 43.0 °F 53% 30.23 in - Calm Calm - N/A   Unknown
4:52 PM 52.0 °F - 43.0 °F 71% 30.23 in - Calm Calm - N/A   Unknown
5:52 PM 48.0 °F - 42.1 °F 80% 30.25 in - Calm Calm - N/A   Unknown
6:52 PM 46.0 °F - 42.1 °F 86% 30.27 in - Calm Calm - N/A   Unknown
7:52 PM 44.1 °F - 41.0 °F 89% 30.28 in - Calm Calm - N/A   Unknown
8:52 PM 42.1 °F - 39.9 °F 92% 30.30 in - Calm Calm - N/A   Unknown
9:52 PM 39.9 °F - 37.9 °F 93% 30.31 in - Calm Calm - N/A   Unknown
10:52 PM 39.0 °F - 37.0 °F 93% 30.31 in - Calm Calm - N/A   Unknown
11:52 PM 39.0 °F - 37.0 °F 93% 30.32 in - Calm Calm - N/A   Unknown